Location: Bryzozowice
(50.3667°N, 18.9667°E)
Time: 16:00:12
(UTC+00:00)

H-2A R/B - Pass Details

Date: 24 January 2020
Orbit: 734 x 836 km, 98.2° (Epoch: 19 February)

Event Time Altitude Azimuth Distance (km) Brightness Sun altitude
Exits shadow 16:09:03 - 64° (ENE) 2,392 3.9 -7.5°
Reaches altitude 10° 16:10:17 10° 50° (NE) 2,321 3.9 -7.7°
Maximum altitude 16:10:31 10° 47° (NE) 2,320 3.9 -7.7°
Drops below altitude 10° 16:10:43 10° 45° (NE) 2,323 3.9 -7.8°
Sets 16:15:57 0° 0° (N) 3,294 5.1 -8.5°
